DAL2147 KCMH-KLGA

Flight info

Callsign DAL2147
Flight time N/A
Altitude 35000
Route RDBUV NOWZU WWSHR CXR ETG MIP4
Aircraft A320/M-SDE3FGHIRWY/LB1

Departure

Time 2026-05-08 23:55
Airport John Glenn Columbus International Airport (KCMH)

Arrival

Time N/A
Airport LaGuardia Airport (KLGA)
Time Latitude Longitude Altitude Speed Heading
2026-05-08 23:17 39.99962 -82.88565 821 ft 0 kts 185°
2026-05-08 23:47 39.99964 -82.88565 821 ft 2 kts 185°
2026-05-08 23:47 39.99990 -82.88563 820 ft 4 kts 178°
2026-05-08 23:47 40.00014 -82.88569 819 ft 4 kts 136°
2026-05-08 23:47 40.00021 -82.88581 820 ft 0 kts 86°
2026-05-08 23:51 40.00022 -82.88543 822 ft 16 kts 90°
2026-05-08 23:52 40.00012 -82.88395 820 ft 9 kts 95°
2026-05-08 23:52 40.00013 -82.88332 820 ft 7 kts 69°
2026-05-08 23:52 40.00054 -82.88301 821 ft 4 kts 14°
2026-05-08 23:52 40.00076 -82.88275 822 ft 14 kts 68°
2026-05-08 23:53 40.00080 -82.88162 823 ft 11 kts 93°
2026-05-08 23:53 40.00076 -82.88085 822 ft 7 kts 95°
2026-05-08 23:53 40.00073 -82.88035 818 ft 4 kts 95°
2026-05-08 23:53 40.00072 -82.87976 817 ft 11 kts 78°
2026-05-08 23:54 40.00121 -82.87942 817 ft 7 kts 352°
2026-05-08 23:54 40.00160 -82.87991 815 ft 11 kts 290°
2026-05-08 23:54 40.00165 -82.88030 820 ft 1 kts 275°
2026-05-08 23:55 40.00200 -82.88675 824 ft 106 kts 276°
2026-05-08 23:55 40.00267 -82.89921 836 ft 166 kts 273°
2026-05-08 23:55 40.00365 -82.91454 1524 ft 172 kts 274°
2026-05-08 23:55 40.00504 -82.93072 2294 ft 187 kts 275°
2026-05-08 23:56 40.00656 -82.94817 3097 ft 200 kts 275°
2026-05-08 23:56 40.00831 -82.96660 3952 ft 210 kts 272°
2026-05-08 23:56 40.00914 -82.98620 4689 ft 228 kts 271°
2026-05-08 23:56 40.01123 -83.00839 4889 ft 266 kts 275°
2026-05-08 23:57 40.01420 -83.03395 4922 ft 305 kts 276°
2026-05-08 23:57 40.01749 -83.06310 4932 ft 343 kts 276°
2026-05-08 23:57 40.02083 -83.09314 4923 ft 322 kts 276°
2026-05-08 23:57 40.02398 -83.12087 4928 ft 297 kts 276°
2026-05-08 23:58 40.02698 -83.14656 4925 ft 276 kts 276°
2026-05-08 23:58 40.02996 -83.17067 4940 ft 276 kts 275°
2026-05-08 23:58 40.03332 -83.19745 4931 ft 321 kts 276°
2026-05-08 23:58 40.03701 -83.22798 4930 ft 358 kts 276°
2026-05-08 23:59 40.04087 -83.26050 5902 ft 355 kts 276°
2026-05-08 23:59 40.04456 -83.29078 7443 ft 309 kts 276°
2026-05-08 23:59 40.04791 -83.31669 8767 ft 283 kts 276°
2026-05-08 23:59 40.05132 -83.34192 9893 ft 289 kts 278°
2026-05-09 00:00 40.05982 -83.36777 9896 ft 335 kts 300°
2026-05-09 00:00 40.07737 -83.39039 9903 ft 378 kts 320°
2026-05-09 00:00 40.10230 -83.40574 10008 ft 410 kts 336°
2026-05-09 00:00 40.12878 -83.41706 11482 ft 392 kts 336°
2026-05-09 00:01 40.15554 -83.42623 12010 ft 415 kts 347°
2026-05-09 00:01 40.18482 -83.42811 12815 ft 417 kts 353°
2026-05-09 00:01 40.21311 -83.42900 14033 ft 412 kts 353°
2026-05-09 00:01 40.24252 -83.43007 14094 ft 432 kts 353°
2026-05-09 00:02 40.27260 -83.43118 15167 ft 422 kts 353°